Location: Hains Lake
(37.8540°N, 99.8578°W)
Time: 17:47:36
(UTC+00:00)

Courier 1B Rocket - Pass Details

Date: 08 December 2021
Orbit: 920 x 1202 km, 28.2° (Epoch: 19 January)

Event Time Altitude Azimuth Distance (km) Brightness Sun altitude
Rises 02:17:18 0° 217° (SW) 3,875 8.6 -34.2°
Reaches altitude 10° 02:21:01 10° 200° (SSW) 2,863 7.6 -34.9°
Enters shadow 02:23:00 15° 185° (S) 2,467 7.1 -35.3°
